Satellite-Ground Cal/Val Region Overpasses Predictions

Prediction of Satellite NPP Overpassing Cal/Val Region: PacNW

Region Location: (Latitude: 10.00, Longitude: 139.50) to (Latitude: 22.70, Longitude: 165.60).

Table of predicted overpasses for the next 14.0 days since TLE Epoch: 11/19/2022
Interval Starting Time Starting Location Ending Time Ending Location
1 11/19/2022 02:46:35 ( 10.52, 158.20) 11/19/2022 02:50:02 ( 22.67, 155.30)
2 11/19/2022 15:18:18 ( 22.70, 155.57) 11/19/2022 15:21:54 ( 10.02, 152.55)
3 11/20/2022 02:27:23 ( 10.00, 163.08) 11/20/2022 02:30:59 ( 22.68, 160.06)
4 11/20/2022 14:59:16 ( 22.69, 160.33) 11/20/2022 15:02:52 ( 10.01, 157.31)
5 11/21/2022 02:11:04 ( 19.59, 165.59) 11/21/2022 02:11:57 ( 22.70, 164.82)
6 11/21/2022 03:49:51 ( 10.03, 142.47) 11/21/2022 03:53:23 ( 22.47, 139.51)
7 11/21/2022 14:40:14 ( 22.68, 165.09) 11/21/2022 14:43:49 ( 10.06, 162.08)
8 11/21/2022 16:21:43 ( 22.67, 139.72) 11/21/2022 16:21:57 ( 21.85, 139.51)
9 11/22/2022 03:30:48 ( 10.04, 147.23) 11/22/2022 03:34:23 ( 22.66, 144.22)
10 11/22/2022 16:02:41 ( 22.65, 144.47) 11/22/2022 16:06:16 ( 10.03, 141.47)
11 11/23/2022 03:11:46 ( 10.05, 151.99) 11/23/2022 03:15:21 ( 22.67, 148.98)
12 11/23/2022 15:43:38 ( 22.70, 149.25) 11/23/2022 15:47:14 ( 10.02, 146.23)
13 11/24/2022 02:52:42 ( 10.01, 156.76) 11/24/2022 02:56:18 ( 22.69, 153.74)
14 11/24/2022 15:24:35 ( 22.68, 154.01) 11/24/2022 15:28:11 ( 10.01, 150.99)
15 11/25/2022 02:33:40 ( 10.02, 161.52) 11/25/2022 02:37:15 ( 22.64, 158.52)
16 11/25/2022 15:05:33 ( 22.67, 158.77) 11/25/2022 15:09:08 ( 10.05, 155.76)
17 11/26/2022 02:15:28 ( 13.03, 165.59) 11/26/2022 02:18:12 ( 22.66, 163.28)
18 11/26/2022 03:56:07 ( 10.05, 140.91) 11/26/2022 03:57:49 ( 16.04, 139.51)
19 11/26/2022 14:46:30 ( 22.65, 163.53) 11/26/2022 14:50:05 ( 10.03, 160.52)
20 11/27/2022 03:37:04 ( 10.01, 145.68) 11/27/2022 03:40:40 ( 22.69, 142.66)
21 11/27/2022 14:30:40 ( 11.37, 165.59) 11/27/2022 14:31:03 ( 10.02, 165.28)
22 11/27/2022 16:08:57 ( 22.69, 142.93) 11/27/2022 16:12:33 ( 10.01, 139.90)
23 11/28/2022 03:18:01 ( 10.02, 150.44) 11/28/2022 03:21:36 ( 22.64, 147.43)
24 11/28/2022 15:49:54 ( 22.67, 147.68) 11/28/2022 15:53:29 ( 10.05, 144.68)
25 11/29/2022 02:58:59 ( 10.04, 155.20) 11/29/2022 03:02:34 ( 22.66, 152.19)
26 11/29/2022 15:30:52 ( 22.65, 152.44) 11/29/2022 15:34:27 ( 10.03, 149.44)
27 11/30/2022 02:39:56 ( 10.00, 159.97) 11/30/2022 02:43:32 ( 22.68, 156.95)
28 11/30/2022 15:11:48 ( 22.69, 157.22) 11/30/2022 15:15:24 ( 10.01, 154.20)
29 12/01/2022 02:20:53 ( 10.02, 164.73) 12/01/2022 02:24:28 ( 22.64, 161.72)
30 12/01/2022 14:52:46 ( 22.67, 161.98) 12/01/2022 14:56:21 ( 10.05, 158.97)
31 12/02/2022 03:43:21 ( 10.05, 144.11) 12/02/2022 03:46:56 ( 22.67, 141.10)
32 12/02/2022 14:35:02 ( 18.02, 165.60) 12/02/2022 14:37:18 ( 10.03, 163.73)
